Weather History for Glendive, MT

Change the Weather History Date:

Monday, March 4, 2013

  Actual Average Record
Temperature  
Mean Temperature 20 °F -  
Max Temperature 30 °F 27 °F 55 °F (2005)
Min Temperature 10 °F 10 °F -13 °F (2003)
Degree Days  
Heating Degree Days 45    
Moisture  
Dew Point 14 °F    
Average Humidity 81    
Maximum Humidity 93    
Minimum Humidity 69    
Precipitation  
Precipitation 0.00 in - - ()
Sea Level Pressure  
Sea Level Pressure 29.96 in    
Wind  
Wind Speed 22 mph (NW)    
Max Wind Speed 38 mph    
Max Gust Speed 47 mph    
Visibility 6 miles    
Events      
Averages and records for this station are not official NWS values.
T = Trace of Precipitation, MM = Missing Value Source: NWS Daily Summary

Daily Weather History Graph

Daily Weather History Graph

Search for Another Location

Airport:

Trip Planner

Search our weather history database for the weather conditions in past years. The results will help you decide how hot, cold, wet, or windy it might be!

Date:

Astronomy

Mar. 04, 2013 Rise Set
Actual Time 6:32 AM MST 5:49 PM MST
Civil Twilight 6:02 AM MST 6:20 PM MST
Nautical Twilight 5:27 AM MST 6:55 PM MST
Astronomical Twilight 4:51 AM MST 7:30 PM MST
Moon 1:01 AM MST (3/4) 10:16 AM MST (3/4)
Length of Visible Light 12h 17m
Length of Day
11h 16m
Waning Gibbous, 51% of the Moon is Illuminated
Mar 4
Waning Gibbous
Mar 4
Last Quarter
Mar 11
New
Mar 19
First Quarter
Mar 27
Full

Hourly Weather History & Observations

Time (MST) Temp. Windchill Dew Point Humidity Pressure Visibility Wind Dir Wind Speed Gust Speed Precip Events Conditions
12:15 AM 30.2 °F 17.4 °F 24.8 °F 80% 29.66 in 10.0 mi West 20.7 mph 29.9 mph N/A   Overcast
12:55 AM 30.2 °F 17.4 °F 21.2 °F 69% 29.66 in 10.0 mi West 20.7 mph 27.6 mph N/A   Overcast
1:15 AM 28.4 °F 15.1 °F 21.2 °F 74% 29.66 in 10.0 mi West 20.7 mph 26.5 mph N/A   Overcast
1:35 AM 26.6 °F 13.8 °F 21.2 °F 80% 29.66 in 10.0 mi West 17.3 mph - N/A   Overcast
1:55 AM 26.6 °F 14.7 °F 19.4 °F 74% 29.66 in 10.0 mi West 15.0 mph - N/A   Overcast
2:15 AM 26.6 °F 15.2 °F 19.4 °F 74% 29.66 in 10.0 mi West 13.8 mph - N/A   Overcast
2:35 AM 26.6 °F 14.7 °F 19.4 °F 74% 29.65 in 10.0 mi WSW 15.0 mph 25.3 mph N/A   Overcast
2:55 AM 26.6 °F 14.3 °F 21.2 °F 80% 29.64 in 10.0 mi West 16.1 mph - N/A   Overcast
3:15 AM 26.6 °F 13.8 °F 21.2 °F 80% 29.64 in 10.0 mi WSW 17.3 mph 21.9 mph N/A   Overcast
3:35 AM 26.6 °F 14.7 °F 23.0 °F 86% 29.63 in 10.0 mi WSW 15.0 mph - N/A   Overcast
3:55 AM 28.4 °F 18.0 °F 23.0 °F 80% 29.63 in 10.0 mi West 12.7 mph - N/A   Overcast
4:15 AM 24.8 °F 11.5 °F 17.6 °F 74% 29.64 in 9.0 mi NNW 17.3 mph - N/A   Overcast
4:35 AM 23.0 °F 7.2 °F 17.6 °F 80% 29.65 in 3.0 mi NNW 23.0 mph - N/A   Overcast
4:55 AM 21.2 °F 6.4 °F 17.6 °F 86% 29.67 in 5.0 mi NW 18.4 mph 26.5 mph N/A   Mostly Cloudy
5:15 AM 21.2 °F 5.6 °F 17.6 °F 86% 29.68 in 4.0 mi NW 20.7 mph 26.5 mph N/A   Mostly Cloudy
5:35 AM 19.4 °F 4.5 °F 15.8 °F 86% 29.69 in 5.0 mi NW 17.3 mph - N/A   Partly Cloudy
5:55 AM 19.4 °F 2.8 °F 15.8 °F 86% 29.69 in 6.0 mi NW 21.9 mph 26.5 mph N/A   Scattered Clouds
6:15 AM 19.4 °F 3.6 °F 15.8 °F 86% 29.70 in 5.0 mi NW 19.6 mph 26.5 mph N/A   Mostly Cloudy
6:35 AM 19.4 °F 2.1 °F 15.8 °F 86% 29.71 in 2.5 mi NW 24.2 mph 29.9 mph N/A   Mostly Cloudy
6:55 AM 21.2 °F 5.2 °F 15.8 °F 80% 29.73 in 2.5 mi NW 21.9 mph 29.9 mph N/A   Mostly Cloudy
7:35 AM 19.4 °F 1.4 °F 17.6 °F 93% 29.74 in 0.8 mi NNW 26.5 mph 33.4 mph N/A   Overcast
8:15 AM 21.2 °F 2.7 °F 15.8 °F 80% 29.78 in 0.2 mi NNW 31.1 mph 40.3 mph N/A   Overcast
8:35 AM 21.2 °F 3.3 °F 17.6 °F 86% 29.79 in 0.5 mi NNW 28.8 mph 39.1 mph N/A   Overcast
8:55 AM 19.4 °F -0.0 °F 15.8 °F 86% 29.81 in 0.5 mi NNW 32.2 mph 38.0 mph N/A   Overcast
9:15 AM 19.4 °F -1.3 °F 15.8 °F 86% 29.82 in 0.2 mi NNW 38.0 mph 47.2 mph N/A   Overcast
9:35 AM 19.4 °F -0.0 °F 15.8 °F 86% 29.86 in 0.2 mi NNW 32.2 mph 41.4 mph N/A   Overcast
9:55 AM 19.4 °F -0.0 °F 15.8 °F 86% 29.87 in 1.0 mi NNW 32.2 mph 40.3 mph N/A   Overcast
10:15 AM 19.4 °F 0.2 °F 15.8 °F 86% 29.90 in 0.8 mi NNW 31.1 mph 39.1 mph N/A   Overcast
10:35 AM 19.4 °F -0.0 °F 15.8 °F 86% 29.91 in 0.5 mi NNW 32.2 mph 39.1 mph N/A   Overcast
10:55 AM 19.4 °F 1.4 °F 15.8 °F 86% 29.93 in 0.5 mi NNW 26.5 mph 36.8 mph N/A   Overcast
11:15 AM 19.4 °F 0.8 °F 15.8 °F 86% 29.94 in 0.5 mi NNW 28.8 mph 38.0 mph N/A   Overcast
11:55 AM 19.4 °F -0.8 °F 12.2 °F 74% 29.97 in 0.2 mi NNW 35.7 mph 44.9 mph N/A   Overcast
12:15 PM 19.4 °F -0.6 °F 14.0 °F 80% 29.98 in 0.5 mi NNW 34.5 mph 41.4 mph N/A   Overcast
12:35 PM 19.4 °F 0.2 °F 14.0 °F 80% 29.99 in 0.5 mi NNW 31.1 mph 40.3 mph N/A   Overcast
12:55 PM 17.6 °F -2.5 °F 14.0 °F 86% 30.01 in 0.5 mi NNW 32.2 mph 40.3 mph N/A   Overcast
1:35 PM 17.6 °F -2.5 °F 12.2 °F 79% 30.04 in 0.2 mi NNW 32.2 mph 40.3 mph N/A   Overcast
1:55 PM 17.6 °F -2.2 °F 12.2 °F 79% 30.05 in 0.5 mi NNW 31.1 mph 35.7 mph N/A   Overcast
2:15 PM 17.6 °F -1.6 °F 12.2 °F 79% 30.06 in 0.8 mi NW 28.8 mph 39.1 mph N/A   Mostly Cloudy
2:55 PM 17.6 °F -0.3 °F 12.2 °F 79% 30.10 in 1.2 mi NW 24.2 mph 34.5 mph N/A   Scattered Clouds
3:35 PM 17.6 °F -2.2 °F 10.4 °F 73% 30.13 in 5.0 mi NW 31.1 mph 36.8 mph N/A   Scattered Clouds
3:55 PM 17.6 °F -1.0 °F 10.4 °F 73% 30.14 in 3.0 mi NW 26.5 mph 36.8 mph N/A   Scattered Clouds
4:35 PM 15.8 °F -3.4 °F 10.4 °F 79% 30.17 in 3.0 mi NW 26.5 mph 36.8 mph N/A   Scattered Clouds
4:55 PM 15.8 °F -4.4 °F 10.4 °F 79% 30.18 in 5.0 mi NW 29.9 mph 35.7 mph N/A   Mostly Cloudy
5:15 PM 15.8 °F -3.1 °F 10.4 °F 79% 30.20 in 10.0 mi NW 25.3 mph 34.5 mph N/A   Mostly Cloudy
5:35 PM 15.8 °F -2.7 °F 8.6 °F 73% 30.21 in 10.0 mi NW 24.2 mph - N/A   Mostly Cloudy
6:15 PM 14.0 °F -6.2 °F 8.6 °F 79% 30.22 in 5.0 mi NNW 27.6 mph - N/A   Clear
6:35 PM 14.0 °F -4.7 °F 8.6 °F 79% 30.24 in 9.0 mi NNW 23.0 mph - N/A   Clear
6:55 PM 14.0 °F -5.8 °F 8.6 °F 79% 30.25 in 10.0 mi NNW 26.5 mph 33.4 mph N/A   Clear
7:15 PM 12.2 °F -8.9 °F 6.8 °F 79% 30.25 in 10.0 mi NW 28.8 mph 34.5 mph N/A   Clear
7:35 PM 12.2 °F -8.6 °F 6.8 °F 79% 30.26 in 10.0 mi NW 27.6 mph 35.7 mph N/A   Clear
7:55 PM 12.2 °F -7.1 °F 6.8 °F 79% 30.27 in 10.0 mi NW 23.0 mph 29.9 mph N/A   Clear
8:15 PM 12.2 °F -7.1 °F 6.8 °F 79% 30.28 in 10.0 mi NW 23.0 mph - N/A   Clear
8:35 PM 10.4 °F -8.6 °F 6.8 °F 85% 30.28 in 10.0 mi NW 20.7 mph 24.2 mph N/A   Clear
8:55 PM 10.4 °F -8.6 °F 6.8 °F 85% 30.29 in 10.0 mi NNW 20.7 mph 26.5 mph N/A   Clear
9:15 PM 10.4 °F -4.1 °F 6.8 °F 85% 30.31 in 10.0 mi NNW 11.5 mph - N/A   Clear
9:35 PM 10.4 °F -6.6 °F 5.0 °F 79% 30.30 in 10.0 mi NNW 16.1 mph - N/A   Mostly Cloudy
9:55 PM 10.4 °F -1.5 °F 6.8 °F 85% 30.33 in 10.0 mi NW 8.1 mph - N/A   Overcast
10:15 PM 10.4 °F -6.0 °F 6.8 °F 85% 30.32 in 10.0 mi NW 15.0 mph - N/A   Overcast
10:35 PM 10.4 °F -4.1 °F 6.8 °F 85% 30.33 in 10.0 mi WNW 11.5 mph - N/A   Overcast
10:55 PM 10.4 °F -6.0 °F 6.8 °F 85% 30.33 in 10.0 mi NW 15.0 mph - N/A   Overcast
11:15 PM 10.4 °F -7.2 °F 6.8 °F 85% 30.33 in 10.0 mi NW 17.3 mph - N/A   Overcast